[[{"header":{"parameterUnit":"m.s-1","parameterCategory":1,"la1":30.2992,"la2":30.254,"lo1":-89.0895,"lo2":-89.0443,"dy":0.0025,"dx":0.0025,"nx":19,"ny":19,"refTime":"2026-03-29T09:00:00:Z","depth":0,"parameterNumber":2,"parameterNumberName":"U-component_of_WINDS"},"data":[0,0,0,-3.6317,-3.6322,-3.6585,-3.6586,-3.6942,-3.6946,0,0,0,0,0,0,0,0,0,0,0,-3.6248,-3.625,-3.6316,-3.6323,-3.6585,-3.6586,-3.6942,-3.6946,0,0,0,0,0,0,0,0,0,0,0,-3.6246,-3.6249,-3.6253,-3.6324,-3.6585,-3.6586,-3.6941,-3.6736,0,0,0,0,0,0,0,0,0,0,-3.6478,-3.6422,-3.6249,-3.6253,-3.6325,-3.6585,-3.6586,-3.6726,-3.6749,-3.6831,0,-3.6903,0,-3.693,-3.6971,-3.6972,0,0,0,-3.6317,-3.6403,-3.6466,-3.6253,-3.6328,-3.6584,-3.6465,-3.6739,-3.6765,-3.6862,-3.6908,-3.6921,-3.6936,-3.6973,-3.6975,-3.7458,-3.7461,0,0,-3.6303,-3.63,-3.6448,-3.6483,-3.644,-3.6457,-3.6473,-3.6754,-3.6806,-3.6909,-3.6929,-3.6942,-3.6975,-3.6978,-3.7456,-3.7459,0,0,0,-3.6265,-3.6291,-3.6346,-3.6469,-3.6514,-3.6465,-3.6484,-3.6794,-3.6812,-3.6933,-3.6946,-3.6978,-3.6982,-3.7453,-3.7457,-3.7579,0,0,0,-3.6256,-3.6268,-3.634,-3.6341,-3.6509,-3.6657,-3.6517,-3.6792,-3.6824,-3.6944,-3.6978,-3.6986,-3.745,-3.7455,-3.757,-3.7638,0,0,0,-3.6228,-3.6265,-3.6306,-3.634,-3.6453,-3.6652,-3.6686,-3.6799,-3.6833,-3.6972,-3.6987,-3.7448,-3.7454,-3.7561,-3.7625,-3.7766,0,0,0,-3.6198,-3.6412,-3.6307,-3.6552,-3.6451,-3.6724,-3.6684,-3.6889,-3.7023,-3.698,-3.7451,-3.7457,-3.7559,-3.7616,-3.7757,-3.7885,-3.7938,0,0,-3.6467,-3.6444,-3.6588,-3.6502,-3.6794,-3.6684,-3.6995,-3.7121,-3.7138,-3.7352,-3.7363,-3.7573,-3.7624,-3.7764,-3.823,-3.8272,0,0,0,-3.6673,-3.6776,-3.6854,-3.698,-3.708,-3.7172,-3.725,-3.7298,-3.7478,-3.7246,-3.7661,-3.7692,-3.7774,-3.7836,-3.7871,-3.7944,-3.7484,-3.7484,-3.7483,-3.7052,-3.7059,-3.7299,-3.7339,-3.7462,-3.754,-3.7642,-3.772,-3.7693,-3.7791,-3.7855,-3.8137,-3.8209,-3.8235,-3.831,-3.7922,-3.7922,-3.7923,-3.7923,-3.7448,-3.7597,-3.7555,-3.7772,-3.778,-3.7964,-3.8049,-3.8024,-3.8199,-3.8089,-3.8162,-3.8043,-3.8281,-3.8347,-3.7932,-3.7931,-3.793,-3.7929,-3.7928,-3.7699,-3.7772,-3.7823,-3.8007,-3.8148,-3.8182,-3.8351,-3.8353,-3.8356,-3.8428,-3.8497,-3.8495,-3.8495,-3.846,-3.8461,-3.8462,-3.8463,-3.8464,-3.8465,-3.794,-3.7994,-3.8134,-3.8258,-3.834,-3.8448,-3.8529,-3.8611,-3.8702,-3.8691,-3.8691,-3.8657,-3.8301,-3.8213,-3.848,-3.8477,-3.8475,-3.8474,-3.8473,-3.8342,-3.8251,-3.8469,-3.855,-3.8696,-3.8838,-3.8837,-3.9003,-3.9071,-3.9156,-3.9105,-3.8841,-3.8819,-3.8791,-3.8719,-3.91,-3.91,-3.91,-3.9101,-3.8556,-3.8543,-3.8766,-3.8897,-3.9025,-3.9046,-3.9296,-3.9362,-3.9417,-3.946,-3.9405,-3.9308,-3.9279,-3.9275,-3.9236,-3.9168,-3.9656,-3.9657,-3.9657,-3.8804,-3.8805,-3.9015,-3.9064,-3.9178,-3.9278,-3.9513,-3.9668,-3.9712,-3.968,-3.9495,-3.9472,-3.9315,-3.9263,-3.9228,-3.9168,-3.9044,0,0]},{"header":{"parameterUnit":"m.s-1","parameterCategory":1,"la1":30.2992,"la2":30.254,"lo1":-89.0895,"lo2":-89.0443,"dy":0.0025,"dx":0.0025,"nx":19,"ny":19,"refTime":"2026-03-29T09:00:00:Z","depth":0,"parameterNumber":3,"parameterNumberName":"V-component_of_WINDS"},"data":[0,0,0,-1.9773,-1.977,-1.9599,-1.9598,-1.9384,-1.9382,0,0,0,0,0,0,0,0,0,0,0,-1.9837,-1.9836,-1.9773,-1.977,-1.9599,-1.9598,-1.9384,-1.9382,0,0,0,0,0,0,0,0,0,0,0,-1.9837,-1.9836,-1.9835,-1.9769,-1.9599,-1.9598,-1.9384,-1.9509,0,0,0,0,0,0,0,0,0,0,-1.9673,-1.9748,-1.9836,-1.9835,-1.9768,-1.96,-1.9598,-1.9515,-1.9501,-1.9466,0,-1.9447,0,-1.9412,-1.9369,-1.9368,0,0,0,-1.9757,-1.976,-1.9702,-1.9835,-1.9767,-1.96,-1.9673,-1.9507,-1.9492,-1.9448,-1.9444,-1.9435,-1.9408,-1.9367,-1.9366,-1.9222,-1.9221,0,0,-1.9767,-1.9811,-1.9713,-1.9693,-1.9732,-1.9678,-1.9667,-1.9498,-1.9493,-1.9443,-1.943,-1.9405,-1.9366,-1.9365,-1.9222,-1.9222,0,0,0,-1.9802,-1.9818,-1.9765,-1.9703,-1.9672,-1.9674,-1.9661,-1.95,-1.9479,-1.9428,-1.9402,-1.9365,-1.9363,-1.9222,-1.9222,-1.9262,0,0,0,-1.9807,-1.9839,-1.977,-1.9795,-1.9676,-1.9586,-1.9668,-1.9491,-1.9471,-1.9403,-1.9365,-1.9361,-1.9222,-1.9222,-1.9261,-1.9272,0,0,0,-1.9843,-1.9843,-1.9824,-1.9798,-1.9727,-1.9588,-1.9557,-1.9486,-1.9456,-1.9368,-1.936,-1.9222,-1.9222,-1.926,-1.9271,-1.9245,0,0,0,-1.9892,-1.986,-1.9825,-1.9778,-1.9729,-1.9618,-1.9558,-1.9471,-1.9401,-1.9364,-1.9222,-1.9222,-1.926,-1.927,-1.9245,-1.9231,-1.9231,0,0,-1.9876,-1.986,-1.9828,-1.9792,-1.97,-1.964,-1.9548,-1.9438,-1.9384,-1.9276,-1.9272,-1.9261,-1.9271,-1.9245,-1.9215,-1.9216,0,0,0,-1.9837,-1.9815,-1.9781,-1.972,-1.9639,-1.9567,-1.9467,-1.9424,-1.9331,-1.9342,-1.9244,-1.9248,-1.9231,-1.9222,-1.9222,-1.9201,-1.922,-1.922,-1.922,-1.9878,-1.9816,-1.9756,-1.9672,-1.9612,-1.9508,-1.9449,-1.9372,-1.9325,-1.9302,-1.9269,-1.926,-1.9252,-1.9251,-1.9231,-1.9258,-1.9258,-1.9258,-1.9258,-1.9846,-1.9803,-1.974,-1.9661,-1.9591,-1.9519,-1.9412,-1.938,-1.9296,-1.9281,-1.9262,-1.925,-1.9254,-1.9232,-1.9261,-1.926,-1.926,-1.926,-1.926,-1.9865,-1.9833,-1.9786,-1.9687,-1.9614,-1.9525,-1.9449,-1.9386,-1.9324,-1.9306,-1.9261,-1.926,-1.9248,-1.929,-1.929,-1.929,-1.9289,-1.9289,-1.9289,-1.9903,-1.9848,-1.9796,-1.9704,-1.9653,-1.9577,-1.9466,-1.941,-1.9331,-1.9289,-1.9289,-1.9238,-1.9269,-1.9276,-1.9289,-1.9289,-1.9289,-1.9289,-1.9289,-1.9892,-1.9883,-1.9804,-1.9754,-1.9635,-1.9564,-1.9484,-1.9374,-1.9317,-1.9279,-1.923,-1.9265,-1.9241,-1.924,-1.9246,-1.9249,-1.9249,-1.9249,-1.9249,-1.9906,-1.9889,-1.9791,-1.9713,-1.9627,-1.9546,-1.9444,-1.9353,-1.9256,-1.9214,-1.9203,-1.9205,-1.9208,-1.9182,-1.9182,-1.9186,-1.9175,-1.9174,-1.9174,-1.9894,-1.9865,-1.9798,-1.9712,-1.9612,-1.9525,-1.9425,-1.9327,-1.9213,-1.917,-1.9178,-1.9181,-1.9183,-1.9189,-1.9147,-1.915,-1.9156,0,0]}]]